sat.trackr.live / text

‹ back to catalog

ONEWEB-0158

NORAD 48054 · 2021-025N

PAYLOAD ACTIVE UNKNOWN

§ Identity

Operator
Country
UK
Launch date
2021-03-25
Launch site
VOSTO
Launch vehicle
Mass (kg)
RCS (m²)

Purposes: comms

External: N2YO · Heavens-Above · Gunter

§ Orbital elements

Epoch: 2026-09-19T19:36:34.632000Z

Period
109.63 min
Inclination
87.8924°
Eccentricity
0.0002090
Mean motion
13.13470249 rev/d
Perigee alt
1,208.2 km
Apogee alt
1,211.4 km
Semi-major
7,587.9 km
B*
-4.9792e-4
RAAN
301.3949°
Arg perigee
87.3214°
Mean anomaly
272.8155°
Rev number
26,605

§ Raw data

ONEWEB-01581 48054U 21025N   26262.81706750 -.00000169  00000+0 -49792-3 0  99942 48054  87.8924 301.3949 0002090  87.3214 272.8155 13.13470249266059

JSON: /api/v1/satellites/48054 · /tle

For live sub-satellite position, see the globe view (requires WebGL).

§ Visibility from observer

Set your observer location to see the next 7 days of passes ≥ 10°. The values pass through the URL so the page stays shareable.

No JS? Fill the form by hand. The geolocation button needs JavaScript.